Flag for Greece Weather past 2 weeks in Glyfada, Greece

Now
86 °F

Passing clouds.


Feels Like: 85 °F
Forecast: 75 / 89 °F
Wind: 22 mph from North

Location: Eleftherios Venizelos International Airport

Current Time: Jul 7, 2015 at 12:28:58 PM

Latest Report: Jul 7, 2015 at 11:20 AM


Visibility: N/A

Pressure: 29.95 "Hg

Humidity: 35%

Dew point: 55 °F

Location of GlyfadaLocation

Historic Weather in Glyfada — Graph

°F

Glyfada temperature yesterday

Maximum temperature yesterday: 90 °F (at 3:50 PM)
Minimum temperature yesterday: 66 °F (at 5:50 AM)
Average temperature yesterday: 79 °F

Past Weeks' High & Low Weather Summary

 TemperatureHumidityPressure
High90 °F (Jul 6, 3:50 PM)88% (Jun 24, 5:50 AM)30.15 "Hg (Jun 24, 5:50 AM)
Low57 °F (Jun 24, 5:50 AM)25% (Jul 2, 4:50 PM)29.77 "Hg (Jun 27, 3:50 AM)
Average74 °F52%29.99 "Hg
* Reported Jun 22 11:20 AM — Jul 7 11:20 AM, Glyfada, Weather by CustomWeather, © 2015

Note: Actual official high and low records may vary slightly from our data, if they occured in-between our weather recording intervals... More about our weather records

Advertising

Glyfada weather history for previous 24 hours

 ConditionsComfort  
Time TempWeatherWind HumidityBarometerVisibility
11:20 AM
Tue, Jul 7
86 °FPassing clouds.22 mph35%29.95 "HgN/A
10:50 AM86 °FPassing clouds.22 mph35%29.95 "HgN/A
10:20 AM84 °FSunny.20 mph37%29.95 "Hg10 mi
9:50 AM84 °FSunny.21 mph37%29.98 "Hg10 mi
9:20 AM82 °FSunny.17 mph40%29.98 "Hg10 mi
8:50 AM82 °FSunny.16 mph40%29.98 "Hg10 mi
8:20 AM81 °FSunny.10 mph45%29.98 "Hg10 mi
7:50 AM79 °FSunny.12 mph48%29.98 "Hg10 mi
7:20 AM77 °FSunny.6 mph47%29.98 "Hg10 mi
6:50 AM77 °FClear.5 mph47%29.98 "Hg10 mi
6:20 AM70 °FClear.9 mph64%29.98 "Hg10 mi
5:50 AM72 °FClear.8 mph61%29.98 "Hg10 mi
5:20 AM73 °FClear.7 mph57%29.98 "Hg10 mi
4:50 AM73 °FClear.9 mph57%29.98 "Hg10 mi
4:20 AM73 °FClear.8 mph53%29.98 "Hg10 mi
3:50 AM73 °FClear.6 mph53%29.98 "Hg10 mi
3:20 AM72 °FClear.8 mph57%29.98 "Hg10 mi
2:50 AM72 °FClear.10 mph57%29.98 "Hg10 mi
2:20 AM72 °FClear.7 mph57%29.98 "Hg10 mi
1:50 AM73 °FClear.2 mph50%29.98 "Hg10 mi
1:20 AM72 °FClear.3 mph53%29.98 "Hg10 mi
12:50 AM70 °FClear.1 mph60%30.01 "Hg10 mi
12:20 AM73 °FClear.2 mph53%30.01 "Hg10 mi
11:50 PM
Mon, Jul 6
72 °FClear.2 mph61%30.01 "Hg10 mi
11:20 PM70 °FClear.3 mph60%30.01 "Hg10 mi
10:50 PM75 °FClear.3 mph54%30.01 "Hg10 mi
10:20 PM77 °FClear.1 mph51%30.01 "Hg10 mi
9:50 PM75 °FClear.1 mph54%30.01 "Hg10 mi
9:20 PM77 °FSunny.6 mph51%30.01 "Hg10 mi
8:50 PM79 °FSunny.8 mph48%30.01 "Hg10 mi
8:20 PM81 °FSunny.12 mph42%29.98 "Hg10 mi
7:50 PM82 °FSunny.14 mph40%29.98 "Hg10 mi
7:20 PM84 °FSunny.17 mph35%29.98 "Hg10 mi
6:50 PM84 °FSunny.20 mph35%29.98 "Hg10 mi
6:20 PM84 °FPassing clouds.20 mph37%29.98 "HgN/A
5:50 PM86 °FPassing clouds.18 mph33%29.98 "HgN/A
5:20 PM86 °FPassing clouds.15 mph35%30.01 "HgN/A
4:50 PM88 °FPassing clouds.17 mph33%30.01 "HgN/A
4:20 PM88 °FPassing clouds.15 mph33%30.01 "HgN/A
3:50 PM90 °FPassing clouds.15 mph33%30.01 "HgN/A
3:20 PM88 °FPassing clouds.16 mph33%30.01 "HgN/A
2:50 PM86 °FPassing clouds.20 mph35%30.01 "HgN/A
2:20 PM86 °FPassing clouds.20 mph35%30.01 "HgN/A
1:50 PM86 °FPassing clouds.17 mph35%30.04 "HgN/A
1:20 PM86 °FPassing clouds.17 mph35%30.04 "HgN/A
12:50 PM84 °FPassing clouds.20 mph37%30.04 "HgN/A
12:20 PM84 °FPassing clouds.21 mph35%30.04 "HgN/A
Weather by CustomWeather, © 2015

See weather overviewHow to use our weather pages